Station WKXA1 - Safe Harbor Met Station, Weeks Bay Reserve, AL Image indicating link to RSS feed of recent meteorological observations for station WKXA1


Conditions at WKXA1 as of
(3:00 am CDT)
0800 GMT on 09/01/2026:
     

Click on the graph icon in the table below to see a time series plot of the last five days of that observation.

5-day plot - Wind Speed Wind Speed (WSPD): 0.0 kts
5-day plot - Atmospheric Pressure Atmospheric Pressure (PRES):30.00 in
5-day plot - Pressure Tendency Pressure Tendency (PTDY):-0.03 in ( Falling )
5-day plot - Air Temperature Air Temperature (ATMP): 76.8 °F
5-day plot - Dew Point Dew Point (DEWP): 76.5 °F
5-day plot -  Wind Speed, Wind Gust and Atmospheric Pressure Combined plot of Wind Speed, Gust, and Air Pressure
Previous observations
TIME
(CDT)
5-day plot - Wind Direction
WDIR
 
5-day plot - Wind Speed
WSPD
kts
5-day plot - Wind Gust
GST
kts
5-day plot - Wave Height
WVHT
ft
5-day plot - Dominant Wave Period
DPD
sec
5-day plot - Average Wave Period
APD
sec
5-day plot - Mean Wave Direction
MWD
 
5-day plot - Atmospheric Pressure
PRES
in
5-day plot - Pressure Tendency
PTDY
in
5-day plot - Air Temperature
ATMP
°F
5-day plot - Water Temperature
WTMP
°F
5-day plot - Dew Point
DEWP
°F
5-day plot - Salinity
SAL
psu
5-day plot - Visibility
VIS
nmi
5-day plot - Tide (above MLLW)
TIDE
ft
2026-09-01 02:45 am- 0.0-----30.00- 76.8- 76.5---
2026-09-01 02:30 am- 0.0-----30.00- 76.8- 76.5---
2026-09-01 02:15 am- 0.0-----30.00- 76.8- 76.5---
2026-09-01 02:00 am- 0.0-----30.00-0.03 77.0- 76.5---
2026-09-01 01:45 am- 0.0-----30.03- 77.0- 76.6---
2026-09-01 01:30 am- 0.0-----30.03- 77.2- 76.6---
2026-09-01 01:15 am- 0.0-----30.03- 77.4- 77.0---
2026-09-01 01:00 am- 0.0-----30.03+0.00 77.4- 76.8---
2026-09-01 12:45 am- 0.0-----30.03- 77.4- 76.8---
2026-09-01 12:30 am- 0.0-----30.03- 77.5- 77.0---
2026-09-01 12:15 am- 0.0-----30.03- 77.7- 77.2---
2026-09-01 12:00 am- 0.0-----30.03+0.00 77.9- 77.4---
2026-08-31 11:45 pm- 0.0-----30.03- 78.1- 77.5---
2026-08-31 11:30 pm- 0.0-----30.03- 78.1- 77.5---
2026-08-31 11:15 pm- 0.0-----30.03- 78.1- 77.2---
2026-08-31 11:00 pm- 0.0-----30.03+0.03 78.3- 77.4---
2026-08-31 10:45 pm- 0.0-----30.03- 78.4- 77.5---
2026-08-31 10:30 pm- 0.0-----30.03- 78.6- 77.7---
2026-08-31 10:15 pm- 0.0-----30.03- 78.4- 77.5---
2026-08-31 10:00 pm- 0.0-----30.03+0.03 78.6- 77.4---
2026-08-31 09:45 pm- 0.0-----30.03- 78.6- 77.4---
2026-08-31 09:30 pm- 0.0-----30.03- 78.8- 77.5---
2026-08-31 09:15 pm- 0.0-----30.03- 79.0- 77.5---
2026-08-31 09:00 pm- 0.0-----30.03+0.03 79.2- 77.9---
2026-08-31 08:45 pm- 0.0-----30.03- 79.3- 77.5---
2026-08-31 08:30 pm- 0.0-----30.00- 79.9- 77.7---
2026-08-31 08:15 pm- 0.0-----30.00- 80.6- 77.7---
2026-08-31 08:00 pm- 0.0-----30.00+0.00 81.5- 77.7---
2026-08-31 07:45 pm- 0.0-----30.00- 82.0- 77.2---
2026-08-31 07:30 pm- 0.0-----30.00- 82.9- 77.4---
2026-08-31 07:15 pm- 0.0-----30.00- 83.5- 77.2---
2026-08-31 07:00 pm- 0.0-----30.00-0.03 84.2- 77.5---
2026-08-31 06:45 pm- 0.0-----30.00- 84.9- 77.2---
2026-08-31 05:45 pmESE 1.9-----30.00- 88.0- 76.5---
2026-08-31 05:30 pmESE 1.0-----30.00- 88.7- 77.2---
2026-08-31 05:15 pm E 1.0-----30.00- 88.7- 76.6---
2026-08-31 05:00 pmENE 1.0-----30.00-0.03 87.8- 75.7---
2026-08-31 04:45 pm NE 2.9-----30.00- 86.7- 75.2---
2026-08-31 04:30 pmNNE 2.9-----30.03- 85.5- 75.2---
2026-08-31 04:15 pmNNE 4.1-----30.03- 86.4- 76.1---
2026-08-31 04:00 pm E 1.9-----30.03-0.03 89.6- 76.1---
2026-08-31 03:45 pm E 1.0-----30.03- 90.3- 75.9---
2026-08-31 03:30 pmENE 2.9-----30.03- 90.5- 76.1---
2026-08-31 03:15 pm NE 2.9-----30.00- 90.0- 76.1---
2026-08-31 03:00 pmENE 1.9-----30.00-0.06 89.4- 75.9---
2026-08-31 02:45 pmENE 1.9-----30.03- 89.8- 75.9---
2026-08-31 02:30 pm E 1.9-----30.03- 91.0- 76.1---
2026-08-31 02:15 pmENE 1.9-----30.03- 91.2- 76.3---
2026-08-31 02:00 pmENE 1.0-----30.03-0.03 91.0- 77.0---
2026-08-31 01:45 pmENE 1.0-----30.03- 90.5- 77.0---
2026-08-31 01:30 pmENE 1.0-----30.03- 87.4- 77.2---
2026-08-31 01:15 pmENE 1.9-----30.06- 88.3- 76.8---
2026-08-31 01:00 pm E 1.9-----30.06+0.00 89.6- 76.1---
2026-08-31 12:45 pmENE 1.9-----30.06- 89.6- 75.7---
2026-08-31 12:30 pm NE 1.9-----30.06- 90.5- 76.6---
2026-08-31 12:15 pmENE 1.9-----30.06- 89.6- 76.1---
2026-08-31 12:00 pm NE 1.9-----30.06+0.00 88.5- 76.5---
2026-08-31 11:45 am NE 2.9-----30.06- 88.3- 77.2---
2026-08-31 11:30 amENE 1.9-----30.06- 88.9- 77.7---
2026-08-31 11:15 am NE 2.9-----30.06- 87.3- 77.7---
2026-08-31 11:00 am NE 2.9-----30.06+0.00 86.0- 77.7---
2026-08-31 10:45 am NE 1.9-----30.06- 86.4- 77.7---
2026-08-31 10:30 am NE 1.9-----30.06- 87.8- 78.3---
2026-08-31 10:15 am NE 1.9-----30.06- 87.1- 78.4---
2026-08-31 10:00 am NE 1.9-----30.06+0.03 85.6- 78.3---
2026-08-31 09:45 am NE 2.9-----30.06- 84.4- 77.7---
2026-08-31 09:30 am NE 2.9-----30.06- 84.4- 77.7---
2026-08-31 09:15 am NE 2.9-----30.06- 83.5- 77.5---
2026-08-31 09:00 am NE 2.9-----30.06+0.03 82.4- 77.2---
2026-08-31 08:45 am NE 2.9-----30.06- 81.7- 76.8---
2026-08-31 08:30 amNNE 1.9-----30.06- 80.6- 76.5---
2026-08-31 08:15 am NE 1.9-----30.06- 79.3- 75.6---
2026-08-31 08:00 amNNE 1.9-----30.06+0.06 78.4- 75.4---
2026-08-31 07:45 am N 1.9-----30.03- 77.7- 75.0---
2026-08-31 07:30 am NE 1.9-----30.03- 77.2- 75.0---
2026-08-31 07:15 am NE 1.9-----30.03- 76.8- 75.4---
2026-08-31 07:00 am NE 1.0-----30.03+0.03 75.9- 75.0---
2026-08-31 06:45 am- 0.0-----30.03- 75.6- 74.7---
2026-08-31 06:30 am- 0.0-----30.03- 75.7- 74.5---
2026-08-31 06:15 am- 0.0-----30.03- 75.9- 74.5---
2026-08-31 06:00 am- 0.0-----30.03+0.03 76.3- 74.5---
2026-08-31 05:45 am NE 1.9-----30.00- 76.6- 74.8---
2026-08-31 05:30 am NE 1.9-----30.00- 76.8- 75.4---
2026-08-31 05:15 am NE 2.9-----30.00- 77.0- 75.6---
2026-08-31 05:00 am NE 2.9-----30.00+0.00 77.0- 75.6---
2026-08-31 04:45 amNNE 1.9-----30.00- 76.8- 75.6---
2026-08-31 04:30 am NE 1.9-----30.00- 76.6- 75.4---
2026-08-31 04:15 amNNE 1.0-----30.00- 76.6- 75.4---
2026-08-31 04:00 amNNE 1.0-----30.00-0.03 76.8- 75.4---